This is the latest recevied weather packets stored in our database for station/object KK7RJD. If no packets are shown the sender has not sent any weather packets the latest 10 day(s).
| Time | Temp. | Humidity | Pressure | Rain* | Wind** | Luminosity | Snow |
|---|---|---|---|---|---|---|---|
| 1778145797 | 10° C | 54% | 1014 hPa | 0 mm | - | 0 W/m² | - |
| 1778145494 | 10° C | 51% | 1013.8 hPa | 0 mm | - | 0 W/m² | - |
| 1778145191 | 10° C | 48% | 1013.8 hPa | 0 mm | - | 0 W/m² | - |
| 1778144891 | 10° C | 48% | 1013.6 hPa | 0 mm | - | 0 W/m² | - |
| 1778144588 | 10° C | 46% | 1013.6 hPa | 0 mm | - | 0 W/m² | - |
| 1778144285 | 10° C | 43% | 1013.6 hPa | 0 mm | - | 0 W/m² | - |
| 1778143981 | 9.44° C | 40% | 1013.7 hPa | 0 mm | - | 0 W/m² | - |
| 1778143679 | 9.44° C | 37% | 1013.6 hPa | 0 mm | - | 0 W/m² | - |
| 1778143375 | 9.44° C | 36% | 1013.7 hPa | 0 mm | - | 0 W/m² | - |
| 1778143073 | 9.44° C | 35% | 1013.6 hPa | 0 mm | - | 0 W/m² | - |
| 1778142769 | 9.44° C | 34% | 1013.3 hPa | 0 mm | - | 0 W/m² | - |
| 1778142465 | 10.56° C | 33% | 1012.9 hPa | 0 mm | - | 0 W/m² | - |
| 1778142161 | 10.56° C | 40% | 1012.6 hPa | 0 mm | - | 0 W/m² | - |
| 1778141858 | 10° C | 40% | 1012.5 hPa | 0 mm | - | 0 W/m² | - |
| 1778141554 | 10.56° C | 37% | 1012.5 hPa | 0 mm | - | 0 W/m² | - |
| 1778141251 | 11.67° C | 40% | 1012.5 hPa | 0 mm | - | 0 W/m² | - |
| 1778140947 | 11.67° C | 47% | 1012.4 hPa | 0 mm | - | 0 W/m² | - |
| 1778140643 | 10° C | 48% | 1011.7 hPa | 0 mm | - | 0 W/m² | - |
| 1778140339 | 8.89° C | 44% | 1011.6 hPa | 0 mm | - | 0 W/m² | - |
| 1778140035 | 8.89° C | 42% | 1011.5 hPa | 0 mm | - | 0 W/m² | - |
| 1778139734 | 8.89° C | 36% | 1011.3 hPa | 0 mm | - | 0 W/m² | - |
| 1778139430 | 8.89° C | 35% | 1011.5 hPa | 0 mm | - | 0 W/m² | - |
| 1778139126 | 7.78° C | 36% | 1011.5 hPa | 0 mm | - | 0 W/m² | - |
| 1778138825 | 7.78° C | 40% | 1011.6 hPa | 0 mm | - | 0 W/m² | - |
| 1778138521 | 7.78° C | 37% | 1011.6 hPa | 0 mm | - | 0 W/m² | - |
* Rain latest hour (hover to see other rain measurements)
** Current wind speed in m/s (hover to see current wind gust speed)